Location: Chacón
(10.5789°N, 66.9317°W)
Time: 15:47:44
(UTC+00:00)

Cosmos 1727 Rocket - Pass Details

Date: 05 August 2024
Orbit: 960 x 997 km, 82.9° (Epoch: 08 September)

Event Time Altitude Azimuth Distance (km) Brightness Sun altitude
Rises 01:34:47 0° 345° (NNW) 3,651 7.5 -37.9°
Reaches altitude 10° 01:37:23 10° 340° (NNW) 2,699 6.8 -38.5°
Enters shadow 01:41:12 35° 314° (NW) 1,515 5.3 -39.3°
